TimeEDT,TemperatureF,Dew PointF,Humidity,Sea Level PressureIn,VisibilityMPH,Wind Direction,Wind SpeedMPH,Gust SpeedMPH,PrecipitationIn,Events,Conditions,WindDirDegrees,DateUTC
12:15 AM,59.0,57.2,94,29.89,2.0,East,4.6,-,N/A,,Overcast,80,2012-10-03 04:15:00
12:35 AM,59.0,57.2,94,29.89,2.0,East,3.5,-,N/A,,Overcast,90,2012-10-03 04:35:00
12:55 AM,59.0,57.2,94,29.89,1.8,East,5.8,-,N/A,,Overcast,100,2012-10-03 04:55:00
1:15 AM,59.0,57.2,94,29.89,1.8,ESE,3.5,-,N/A,,Overcast,120,2012-10-03 05:15:00
1:35 AM,59.0,59.0,100,29.89,2.5,SE,4.6,-,N/A,,Overcast,130,2012-10-03 05:35:00
1:55 AM,59.0,59.0,100,29.89,2.5,SSE,4.6,-,N/A,,Overcast,150,2012-10-03 05:55:00
2:15 AM,59.0,59.0,100,29.89,2.5,SE,3.5,-,N/A,,Overcast,140,2012-10-03 06:15:00
2:35 AM,59.0,57.2,94,29.90,3.0,SSE,4.6,-,N/A,,Overcast,150,2012-10-03 06:35:00
2:55 AM,59.0,57.2,94,29.91,3.0,South,4.6,-,N/A,,Overcast,170,2012-10-03 06:55:00
3:15 AM,57.2,57.2,100,29.91,3.0,South,8.1,-,N/A,,Overcast,170,2012-10-03 07:15:00
3:35 AM,55.4,55.4,100,29.91,5.0,South,5.8,-,N/A,,Overcast,180,2012-10-03 07:35:00
3:55 AM,55.4,53.6,94,29.91,5.0,SSE,5.8,-,N/A,,Overcast,160,2012-10-03 07:55:00
4:15 AM,55.4,53.6,94,29.92,5.0,South,5.8,-,N/A,,Overcast,170,2012-10-03 08:15:00
4:35 AM,55.4,53.6,94,29.92,5.0,South,6.9,-,N/A,,Overcast,180,2012-10-03 08:35:00
4:55 AM,55.4,53.6,94,29.92,7.0,South,6.9,-,N/A,,Overcast,180,2012-10-03 08:55:00
5:15 AM,55.4,53.6,94,29.93,7.0,South,5.8,-,N/A,,Overcast,180,2012-10-03 09:15:00
5:35 AM,55.4,53.6,94,29.94,5.0,South,4.6,-,N/A,,Overcast,170,2012-10-03 09:35:00
5:55 AM,55.4,53.6,94,29.94,5.0,SSE,5.8,-,N/A,,Overcast,160,2012-10-03 09:55:00
6:15 AM,55.4,53.6,94,29.94,4.0,SSE,5.8,-,N/A,,Overcast,160,2012-10-03 10:15:00
6:35 AM,55.4,53.6,94,29.95,5.0,SSE,5.8,-,N/A,,Overcast,150,2012-10-03 10:35:00
6:55 AM,55.4,53.6,94,29.96,5.0,SSE,6.9,-,N/A,,Overcast,160,2012-10-03 10:55:00
7:15 AM,55.4,53.6,94,29.96,5.0,SSE,4.6,-,N/A,,Overcast,160,2012-10-03 11:15:00
7:35 AM,55.4,53.6,94,29.96,5.0,SSE,4.6,-,N/A,,Overcast,150,2012-10-03 11:35:00
7:55 AM,55.4,53.6,94,29.97,5.0,SSE,6.9,-,N/A,,Overcast,160,2012-10-03 11:55:00
8:15 AM,55.4,53.6,94,29.97,5.0,South,5.8,-,N/A,,Overcast,170,2012-10-03 12:15:00
8:35 AM,55.4,53.6,94,29.98,5.0,South,5.8,-,N/A,,Overcast,170,2012-10-03 12:35:00
8:55 AM,55.4,53.6,94,29.99,3.0,SSE,6.9,-,N/A,,Drizzle,160,2012-10-03 12:55:00
9:15 AM,55.4,53.6,94,29.99,2.5,SSE,8.1,-,N/A,,Drizzle,160,2012-10-03 13:15:00
9:35 AM,55.4,53.6,94,29.99,3.0,South,5.8,-,N/A,Rain,Rain,170,2012-10-03 13:35:00
9:55 AM,55.4,53.6,94,30.00,3.0,South,8.1,-,N/A,,Light Drizzle,170,2012-10-03 13:55:00
10:15 AM,55.4,53.6,94,30.00,2.5,South,8.1,-,N/A,,Drizzle,170,2012-10-03 14:15:00
10:35 AM,55.4,53.6,94,30.01,2.0,South,10.4,-,N/A,,Drizzle,180,2012-10-03 14:35:00
11:15 AM,55.4,55.4,100,30.01,4.0,South,8.1,-,N/A,,Overcast,180,2012-10-03 15:15:00
11:35 AM,55.4,55.4,100,30.01,5.0,South,9.2,-,N/A,,Overcast,180,2012-10-03 15:35:00
11:55 AM,57.2,55.4,94,30.01,5.0,South,11.5,-,N/A,,Overcast,180,2012-10-03 15:55:00
12:15 PM,55.4,55.4,100,30.01,2.0,South,9.2,-,N/A,,Overcast,190,2012-10-03 16:15:00
12:35 PM,57.2,55.4,94,30.01,10.0,South,12.7,-,N/A,,Overcast,190,2012-10-03 16:35:00
12:55 PM,59.0,55.4,88,30.01,10.0,South,11.5,-,N/A,,Overcast,190,2012-10-03 16:55:00
1:15 PM,57.2,55.4,94,30.01,10.0,SSW,12.7,18.4,N/A,,Overcast,200,2012-10-03 17:15:00
1:35 PM,59.0,55.4,88,30.01,10.0,SSW,12.7,-,N/A,,Overcast,210,2012-10-03 17:35:00
1:55 PM,59.0,55.4,88,30.01,10.0,SSW,10.4,-,N/A,,Overcast,200,2012-10-03 17:55:00
2:15 PM,59.0,55.4,88,30.01,10.0,SSW,11.5,-,N/A,,Overcast,210,2012-10-03 18:15:00
2:35 PM,60.8,55.4,82,30.01,10.0,SSW,11.5,-,N/A,,Overcast,210,2012-10-03 18:35:00
2:55 PM,59.0,55.4,88,30.01,10.0,SSW,15.0,-,N/A,,Overcast,210,2012-10-03 18:55:00
3:15 PM,59.0,55.4,88,30.01,5.0,SSW,13.8,17.3,N/A,,Overcast,210,2012-10-03 19:15:00
3:35 PM,60.8,55.4,82,30.01,10.0,SSW,10.4,-,N/A,,Overcast,210,2012-10-03 19:35:00
3:55 PM,62.6,55.4,77,30.01,10.0,SW,11.5,-,N/A,,Overcast,220,2012-10-03 19:55:00
4:15 PM,62.6,55.4,77,30.01,10.0,SSW,12.7,-,N/A,,Overcast,210,2012-10-03 20:15:00
4:35 PM,62.6,53.6,72,30.00,10.0,SSW,12.7,17.3,N/A,,Overcast,200,2012-10-03 20:35:00
4:55 PM,64.4,53.6,68,30.01,10.0,SSW,12.7,18.4,N/A,,Overcast,210,2012-10-03 20:55:00
5:15 PM,64.4,51.8,64,30.01,10.0,SW,15.0,18.4,N/A,,Overcast,220,2012-10-03 21:15:00
5:35 PM,64.4,53.6,68,30.01,10.0,SW,9.2,-,N/A,,Overcast,220,2012-10-03 21:35:00
5:55 PM,64.4,51.8,64,30.02,10.0,SSW,11.5,-,N/A,,Overcast,200,2012-10-03 21:55:00
6:15 PM,64.4,51.8,64,30.02,10.0,SSW,10.4,-,N/A,,Overcast,200,2012-10-03 22:15:00
6:35 PM,62.6,51.8,68,30.02,10.0,SSW,6.9,-,N/A,,Overcast,200,2012-10-03 22:35:00
6:55 PM,62.6,51.8,68,30.02,10.0,South,5.8,-,N/A,,Mostly Cloudy,180,2012-10-03 22:55:00
7:15 PM,62.6,51.8,68,30.03,10.0,South,4.6,-,N/A,,Overcast,190,2012-10-03 23:15:00
7:35 PM,59.0,51.8,77,30.03,10.0,South,5.8,-,N/A,,Scattered Clouds,180,2012-10-03 23:35:00
7:55 PM,59.0,51.8,77,30.03,10.0,South,4.6,-,N/A,,Scattered Clouds,170,2012-10-03 23:55:00
8:15 PM,59.0,51.8,77,30.04,10.0,South,4.6,-,N/A,,Scattered Clouds,170,2012-10-04 00:15:00
8:35 PM,55.4,50.0,82,30.04,10.0,South,4.6,-,N/A,,Clear,170,2012-10-04 00:35:00
8:55 PM,53.6,50.0,88,30.04,10.0,SSE,4.6,-,N/A,,Scattered Clouds,160,2012-10-04 00:55:00
9:15 PM,55.4,51.8,88,30.05,10.0,SSE,4.6,-,N/A,,Mostly Cloudy,150,2012-10-04 01:15:00
9:35 PM,55.4,50.0,82,30.05,10.0,SSE,5.8,-,N/A,,Mostly Cloudy,150,2012-10-04 01:35:00
9:55 PM,55.4,50.0,82,30.06,10.0,SSE,6.9,-,N/A,,Mostly Cloudy,150,2012-10-04 01:55:00
10:15 PM,53.6,50.0,88,30.06,10.0,SSE,5.8,-,N/A,,Mostly Cloudy,160,2012-10-04 02:15:00
10:35 PM,55.4,50.0,82,30.06,10.0,SSE,5.8,-,N/A,,Scattered Clouds,160,2012-10-04 02:35:00
10:55 PM,57.2,51.8,82,30.06,10.0,South,6.9,-,N/A,,Scattered Clouds,170,2012-10-04 02:55:00
11:15 PM,57.2,51.8,82,30.07,10.0,South,6.9,-,N/A,,Clear,180,2012-10-04 03:15:00
11:35 PM,55.4,51.8,88,30.07,10.0,South,6.9,-,N/A,,Clear,190,2012-10-04 03:35:00
11:55 PM,55.4,50.0,82,30.08,10.0,SSW,5.8,-,N/A,,Clear,200,2012-10-04 03:55:00